TIANMU-1 19

Last updated on Wed Sep 23 2026 00:03:10 GMT+0000 (Coordinated Universal Time)

1 58660U 23208A 26265.59225745 .00005968 00000+0 19038-3 0 9991 2 58660 97.4577 22.5268 0004125 345.8808 14.2318 15.32891226152241
UTC large
Height (km)
Speed (km/s)
/
Latitude / Longitude
Inclination (degrees)
Orbital Period (minutes)
Azimuth
Elevation
Range (km)
Doppler Factor

Next 0 passes for location: London (51.5072 / 0.1276)

No passes found over London.
TIANMU-1 19